OBJECT G, 61741

Orbit data source: Space-Track

You're viewing an Uncataloged Satellite

Recently launched and/or uncataloged satellites may have evolving metadata. Metadata may include but not limited to: Owner, Maufacturer, Bus, Motor, and Mission.

OBJECT G, 61741 is a satellite in SSO that was launched on Mon, 04 Nov 2024 UTC via a SOYUZ-2-1B launch vehicle from the Vostochny Cosmodrome (VOSTO). Unknown objects in Earth's orbit typically refer to objects detected orbiting the Earth but have not yet been identified or cataloged. These objects could be anything from previously untracked satellites, spent rocket stages, debris from satellite collisions, or even natural meteoroids temporarily captured by Earth's gravity.

Loading next visibility...
Identifier
61741, 2024-199G
Orbit
SSO
Country
Flag of TBDTBD
Related business
Manufacturer
Sputniks
Mission
Operational Commercial Communications
Bus & Motor
CUBESAT 3U?, Unknown motor
Mass
3 kg wet, 3 kg dry
Launch date (UTC)
2024-11-04 (1 year ago)
Launch vehicle
SOYUZ-2-1B
Launch site
Vostochny Cosmodrome (VOSTO)
Object type
Unknown
Shape & HBR
Box, 0.1 m
Radar Cross Section
0.035 m², Small (<0.1 m²)

Expand to show TLE details & history
Last TLE update: 14 hours ago

TLE from 14 hours ago
0 OBJECT G
1 61741U 24199G   25296.94010920  .00005116  00000-0  48093-3 0  9993
2 61741  97.3408 145.1913 0013941 134.0730 226.1642 14.94238877 96586
Epoch: 2025-10-23T22:33Z
TLE epoch observation values (Epoch: 2025-10-23T22:33:45.434Z)
Latitude
-0.00001°
Longitude
134.15983°
Altitude
594.525 km
Speed
7.559 km/s
True Right ascension
09h 40m 45s
True Declination
0° 00' 00"
Sunlit
Object was in daylight at epoch
Visualization orbit readout
Latitude
Unknown
Longitude
Unknown
Altitude
Unknown
Speed
Unknown
Apparent Right ascension
Unknown
Apparent Declination
Unknown
Sunlit
N/A
Visualization observer readout
Local Sidereal Time
07:48:38
Azimuth
Unknown
Elevation
Unknown
Doppler factor
Unknown
Orbital elements
Apogee altitude
591.436 km
Perigee altitude
572.031 km
Semi-major axis
6,959.871 km
Eccentricity
0.00139
Inclination
97.3408°
RAAN
145.1913°
Arg. of periapsis
134.073°
True anomaly
226.04911°
Mean anomaly
226.1642°
Eccentric anomaly
226.10664°
Mean motion
3.73802 °/min
Orbital period
96.31 mins
BSTAR
0.00048093
Loading maneuver chart data...
Computing Atmospheric mass density...
Loading historical data...
Loading historical data...
Loading historical data...
Loading historical data...
Loading historical data...
Loading historical data...
Loading historical data...

Documentation

Showing up to 5 results
|